Wetbulb
74.05 74.78 74.25 74.05 75.10 75.77 75.46 75.99 75.71 75.58 75.87 73.99 74.86 75.08 74.57 73.72 73.03 71.80 72.42 71.73 73.75 73.99 74.62 74.93 75.33 75.82 76.14 76.73 77.40 77.69 77.99 77.93 77.87 78.02 78.33 77.76 77.18 77.28 77.34 77.35 77.53 77.26 77.27
75.31 75.25 74.88 74.95 75.99 76.44 76.67 76.71 77.01 76.32 74.96 73.86 73.31 74.45 74.31 73.72 73.31 72.30 72.88 73.75 72.98 75.02 75.09 74.95 75.61 76.09 76.32 76.57 77.33 78.22 78.26 78.17 77.98 77.99 78.06 77.41 77.13 76.99 77.07 77.13 76.80 76.53 76.46
75.90 75.10 75.38 75.64 75.93 76.30 76.57 76.91 76.72 77.17 74.23 73.78 73.38 73.61 73.63 73.23 72.49 71.91 72.77 72.79 73.15 72.40 72.54 74.21 73.90 74.73 75.35 76.06 77.59 78.60 77.90 77.89 77.96 78.16 77.06 76.68 76.60 76.79 76.73 76.61 76.53 76.26 76.04
75.59 76.04 75.49 76.06 76.01 77.15 76.91 76.88 76.37 75.36 74.41 74.41 73.35 72.94 73.34 73.67 73.60 73.35 73.11 72.71 72.94 72.57 73.86 71.79 72.46 73.71 74.60 75.75 77.60 78.62 78.58 78.00 77.77 77.42 76.62 76.45 76.60 76.70 76.33 76.29 76.16 76.06 75.86
76.26 76.89 75.67 75.76 76.55 76.53 76.62 76.66 75.49 75.64 73.89 73.60 73.36 74.38 74.86 75.12 74.79 73.75 74.52 74.80 74.57 73.49 74.39 75.42 73.25 73.56 74.78 76.61 77.82 78.32 78.54 78.28 77.92 77.15 76.80 76.09 76.21 76.56 76.19 75.99 75.69 75.61 75.80
76.65 76.90 75.70 75.68 76.56 77.07 76.85 75.62 75.10 74.93 75.06 74.38 73.00 74.21 75.20 75.42 75.23 75.42 75.07 75.00 74.85 75.15 75.79 76.15 76.17 76.10 75.16 75.23 75.90 76.59 78.11 78.38 78.02 77.41 76.89 75.84 75.79 76.25 76.09 75.66 75.06 75.43 75.52
75.37 75.07 74.79 75.00 76.53 75.97 76.90 76.92 75.67 74.93 74.45 76.22 74.79 73.93 74.29 74.72 74.58 75.29 75.79 75.46 74.94 75.01 75.73 76.26 76.82 77.14 77.13 75.85 75.78 76.96 77.08 77.30 77.89 77.56 77.20 76.34 75.60 75.85 75.76 75.31 74.61 75.23 75.17
76.21 75.12 74.43 74.56 76.62 76.19 77.23 77.12 76.89 74.70 74.23 75.31 74.41 73.03 70.14 71.86 74.88 74.09 75.57 75.87 75.04 75.39 74.70 75.50 76.61 78.07 78.15 77.49 77.68 75.86 76.14 76.10 76.86 77.95 78.08 77.06 76.37 75.72 75.81 75.43 74.61 74.98 74.50
75.73 75.64 74.60 74.57 76.23 76.20 76.57 77.46 76.90 75.97 73.76 74.43 74.62 73.79 69.79 68.25 72.93 74.66 74.03 75.15 75.47 75.53 75.75 75.52 75.42 77.54 78.70 78.22 77.39 77.41 74.94 74.83 75.88 76.77 77.53 76.94 75.96 76.14 76.31 75.91 75.03 74.86 74.30
76.07 75.34 73.02 75.01 75.14 76.08 77.26 77.34 76.32 76.51 76.47 74.02 74.14 73.70 73.93 73.65 70.87 70.14 73.46 73.49 74.48 73.46 74.30 74.49 74.42 75.45 76.77 76.79 76.91 75.63 74.26 74.50 75.00 75.41 75.91 76.28 76.06 76.36 76.89 76.76 75.69 75.18 74.43
76.51 75.84 75.07 74.07 74.84 74.54 77.56 77.84 74.95 76.45 76.00 75.12 74.97 73.54 73.91 72.95 73.67 70.80 68.77 71.36 74.09 74.12 74.42 74.27 74.68 75.42 75.75 76.70 77.13 76.64 74.48 73.87 73.39 73.78 74.56 75.18 76.59 76.98 77.02 77.24 76.73 75.67 74.86
75.60 76.43 75.93 76.10 75.05 74.24 76.52 77.90 75.17 75.09 76.37 75.51 75.06 74.91 73.35 72.88 71.64 71.40 70.03 71.82 69.93 71.72 74.23 74.74 75.62 76.58 77.00 77.78 77.81 75.21 73.73 72.72 72.00 71.92 72.40 73.04 73.26 73.69 74.13 75.52 75.09 74.70 74.09
74.40 76.23 76.71 76.46 75.59 75.35 76.50 77.39 77.47 74.68 73.93 76.31 76.82 74.16 74.75 74.23 74.45 73.36 72.42 72.23 71.08 72.34 74.60 75.62 76.13 76.93 77.32 77.84 77.41 75.67 73.02 71.59 70.86 69.94 69.90 70.14 70.36 70.89 71.37 73.16 74.01 74.19 73.56
74.65 76.59 76.61 76.78 76.56 75.95 76.43 77.32 76.83 76.42 76.76 76.84 76.11 77.02 75.14 74.67 74.98 74.48 73.32 71.98 72.37 73.04 73.98 73.56 76.78 76.92 77.35 77.12 76.74 75.37 76.09 70.39 69.61 68.42 68.00 68.11 68.71 69.97 71.06 72.29 72.46 71.76 71.57
75.40 76.23 76.50 76.59 76.73 76.43 76.21 77.04 76.09 76.57 76.93 76.90 76.48 76.51 76.48 76.21 74.58 75.21 74.68 73.82 71.85 68.64 69.60 72.99 74.40 76.82 77.42 77.51 75.40 77.20 77.05 69.29 68.55 66.24 64.97 65.31 66.52 67.80 68.68 69.15 69.30 69.63 69.94
75.99 75.92 76.00 76.34 76.78 76.45 76.21 76.60 76.37 76.98 76.21 75.69 75.75 76.47 76.56 76.26 75.85 75.42 74.67 74.33 74.19 71.75 68.76 73.23 75.10 76.60 77.48 76.51 75.41 77.42 76.17 70.16 67.30 65.28 64.12 63.74 64.27 64.87 65.18 65.11 65.35 66.00 66.69
75.82 75.63 76.14 75.90 76.04 76.26 76.66 76.83 76.66 76.45 76.15 76.08 76.26 76.56 76.09 76.78 74.92 75.08 75.41 75.73 75.00 73.88 70.88 73.20 75.49 76.98 76.95 76.12 76.22 77.04 76.53 74.20 67.38 64.16 63.52 62.88 61.90 61.16 60.88 60.54 60.65 61.21 62.40
75.98 75.83 75.78 75.79 76.15 75.74 76.34 75.97 75.59 75.41 75.56 75.13 75.26 75.60 75.70 75.13 76.09 76.31 75.22 75.85 75.15 75.56 73.02 72.35 74.63 75.35 75.57 74.95 75.92 75.53 73.30 72.31 71.27 63.68 62.51 61.62 60.02 59.14 58.40 57.92 57.89 57.73 57.51
75.04 75.24 75.01 74.94 75.03 75.16 75.70 76.16 76.21 76.17 75.65 75.57 75.65 75.15 75.54 75.61 75.39 75.09 76.13 75.92 74.58 74.64 74.51 74.91 72.40 74.96 75.35 74.64 75.06 75.34 71.09 70.69 71.55 65.87 61.99 62.03 61.45 59.33 57.53 56.95 56.68 55.91 55.30
75.00 74.74 75.21 75.00 74.54 74.59 75.18 75.75 76.00 76.12 75.97 75.70 76.18 76.09 75.89 75.68 75.92 76.32 76.36 76.91 75.99 75.36 75.73 74.33 72.23 73.37 74.92 73.93 74.92 73.99 70.53 67.17 67.85 69.79 64.61 62.44 63.31 61.03 58.41 56.81 57.05 56.21 54.56
74.93 75.51 75.25 74.87 74.87 74.40 74.09 75.35 76.20 75.76 75.97 75.80 76.11 76.04 75.64 73.64 67.81 70.70 76.61 76.71 76.11 75.77 74.70 72.34 73.86 73.46 72.22 71.87 72.25 73.09 73.16 70.98 64.60 66.61 66.96 68.33 63.76 63.13 59.40 56.63 55.86 54.78 54.68
75.15 75.15 74.75 74.80 74.71 73.37 65.43 66.01 71.67 74.78 75.81 75.70 75.13 74.13 72.79 68.79 68.74 65.77 65.76 64.89 68.80 74.92 74.13 74.16 72.23 70.92 71.14 71.98 72.61 71.14 70.83 70.61 67.01 62.89 65.91 65.08 62.97 60.52 56.80 55.42 52.91 52.68 52.85
74.93 74.61 74.61 74.85 74.68 74.58 61.60 62.63 64.88 72.81 73.48 74.19 74.26 70.50 70.32 69.89 68.91 68.93 63.34 62.99 63.12 62.48 65.84 70.43 68.42 68.67 69.70 69.18 70.11 68.44 68.38 65.16 61.43 58.92 64.71 57.87 65.70 58.80 58.36 55.69 52.33 51.49 51.10
72.66 72.77 72.34 72.42 71.44 70.74 60.88 60.83 62.21 72.35 72.00 72.24 71.50 69.59 68.71 66.74 67.50 65.86 67.74 66.72 64.44 64.24 65.12 65.60 65.54 64.11 65.00 65.93 67.59 67.99 67.72 62.72 60.58 57.73 60.43 61.24 57.12 62.59 59.84 56.58 52.96 51.01 50.14
68.66 69.06 69.05 68.45 68.58 67.69 60.49 59.91 62.12 69.90 67.27 64.71 64.25 65.36 67.74 65.10 58.08 60.24 65.56 63.57 61.38 58.70 55.50 55.57 55.82 55.97 55.30 56.11 59.73 65.87 64.89 64.07 62.75 56.66 54.89 59.15 54.70 57.87 62.24 58.24 55.32 52.29 50.28
62.60 61.81 61.21 60.04 57.69 64.07 59.29 57.86 61.41 67.26 62.95 57.83 58.99 57.87 57.36 58.50 55.58 58.36 64.36 63.40 60.78 59.08 59.36 59.55 59.51 57.91 57.51 56.40 55.19 59.23 59.03 58.12 58.62 55.49 53.10 56.26 53.61 54.41 55.17 59.60 56.07 53.65 53.87
MSLP
1020.93 1020.92 1021.09 1020.97 1020.94 1020.95 1020.87 1020.77 1020.74 1020.59 1020.53 1020.45 1020.48 1020.61 1020.55 1020.73 1020.94 1021.07 1021.23 1021.75 1021.82 1021.77 1021.75 1021.72 1021.62 1021.42 1021.28 1021.05 1020.90 1020.70 1020.33 1019.94 1019.58 1019.24 1018.89 1018.63 1018.51 1018.32 1018.05 1017.86 1017.70 1017.53 1017.25
1020.99 1020.87 1020.90 1020.84 1020.85 1020.99 1020.96 1020.84 1020.73 1020.56 1020.36 1020.26 1020.44 1020.48 1020.67 1020.84 1021.09 1021.25 1021.15 1021.29 1021.84 1021.86 1021.87 1021.65 1021.44 1021.37 1021.12 1020.78 1020.55 1020.31 1020.03 1019.80 1019.42 1019.13 1018.72 1018.53 1018.33 1018.17 1017.93 1017.73 1017.57 1017.37 1017.06
1020.98 1020.96 1020.87 1020.85 1020.84 1020.94 1020.90 1020.75 1020.64 1020.55 1020.25 1020.22 1020.51 1020.65 1020.80 1021.00 1021.02 1021.28 1021.33 1021.38 1021.36 1021.68 1021.68 1021.51 1021.29 1021.16 1020.83 1020.47 1020.24 1019.98 1019.82 1019.68 1019.34 1019.03 1018.79 1018.42 1018.22 1017.99 1017.83 1017.63 1017.45 1017.28 1016.92
1021.07 1021.06 1020.89 1020.89 1020.96 1020.84 1020.71 1020.53 1020.47 1020.47 1020.54 1020.52 1020.58 1020.63 1020.81 1020.90 1021.04 1021.25 1021.31 1021.35 1021.27 1021.13 1021.19 1021.24 1021.06 1020.83 1020.52 1020.30 1019.94 1019.72 1019.63 1019.40 1019.19 1018.93 1018.69 1018.42 1018.20 1017.90 1017.66 1017.47 1017.25 1017.03 1016.79
1021.10 1021.06 1020.97 1021.03 1021.03 1020.76 1020.63 1020.56 1020.63 1020.66 1020.70 1020.70 1020.61 1020.64 1020.63 1020.64 1020.83 1020.79 1020.97 1020.98 1020.92 1020.88 1020.73 1020.73 1020.89 1020.74 1020.35 1020.06 1019.84 1019.66 1019.55 1019.34 1018.99 1018.83 1018.66 1018.37 1018.09 1017.85 1017.57 1017.39 1017.17 1016.86 1016.56
1021.08 1021.10 1021.02 1021.06 1020.92 1020.62 1020.63 1020.66 1020.80 1020.90 1020.91 1020.82 1020.57 1020.56 1020.71 1020.73 1020.82 1020.76 1020.63 1020.67 1020.70 1020.66 1020.56 1020.63 1020.46 1020.11 1020.18 1020.01 1019.88 1019.71 1019.51 1019.25 1018.96 1018.78 1018.50 1018.21 1017.89 1017.64 1017.45 1017.22 1017.01 1016.71 1016.42
1021.11 1021.15 1021.04 1020.99 1020.97 1020.88 1020.95 1020.96 1020.88 1021.03 1021.00 1021.11 1020.74 1020.61 1020.78 1020.84 1020.82 1020.81 1020.65 1020.55 1020.42 1020.35 1020.41 1020.37 1020.12 1019.82 1019.52 1019.67 1019.75 1019.67 1019.48 1019.20 1018.92 1018.62 1018.28 1017.99 1017.66 1017.33 1017.14 1016.88 1016.70 1016.46 1016.22
1021.03 1021.17 1021.24 1021.00 1021.05 1020.96 1020.99 1021.00 1020.99 1020.87 1021.06 1021.22 1020.74 1020.68 1020.34 1020.53 1020.44 1020.60 1020.60 1020.52 1020.46 1020.41 1020.38 1020.23 1020.05 1019.82 1019.65 1019.57 1019.63 1019.58 1019.42 1019.12 1018.75 1018.55 1018.27 1017.82 1017.47 1017.07 1016.84 1016.68 1016.36 1016.19 1016.06
1021.00 1021.30 1021.29 1021.18 1021.13 1021.09 1020.96 1021.08 1021.05 1020.93 1020.86 1021.18 1021.37 1020.90 1020.50 1020.09 1020.35 1020.41 1020.50 1020.46 1020.52 1020.33 1020.14 1020.15 1019.91 1019.86 1019.78 1019.50 1019.46 1019.20 1019.24 1019.08 1018.70 1018.32 1018.01 1017.70 1017.32 1017.05 1016.90 1016.69 1016.37 1015.98 1016.01
1021.02 1021.25 1021.32 1021.29 1021.31 1021.11 1021.12 1021.10 1020.97 1021.09 1021.05 1020.92 1021.14 1021.28 1021.32 1021.01 1020.31 1019.94 1020.27 1020.28 1020.45 1020.21 1020.18 1020.01 1019.96 1019.91 1019.96 1019.60 1019.61 1019.46 1019.16 1019.09 1018.68 1018.24 1017.90 1017.42 1017.01 1016.70 1016.59 1016.50 1016.53 1016.22 1016.02
1020.88 1021.19 1021.34 1021.30 1021.32 1021.26 1021.22 1021.17 1021.28 1021.26 1021.20 1021.12 1021.10 1021.23 1021.35 1021.20 1021.20 1020.66 1019.95 1020.03 1020.32 1020.33 1020.12 1020.09 1020.05 1019.91 1019.78 1019.62 1019.32 1019.09 1019.20 1019.09 1018.95 1018.54 1018.15 1017.62 1017.26 1016.68 1016.31 1016.23 1016.44 1016.31 1016.10
1020.59 1021.05 1021.07 1021.18 1021.30 1021.33 1021.34 1021.15 1021.40 1021.49 1021.40 1021.38 1021.37 1021.33 1021.06 1020.96 1020.89 1020.82 1020.55 1020.45 1020.51 1020.36 1020.32 1020.10 1019.94 1019.84 1019.68 1019.55 1019.45 1019.59 1019.42 1019.29 1019.11 1018.76 1018.23 1017.69 1017.38 1016.86 1016.32 1016.12 1016.12 1016.18 1016.15
1020.37 1020.71 1020.81 1020.97 1020.97 1021.24 1021.28 1021.19 1021.35 1021.49 1021.60 1021.50 1021.62 1021.48 1021.51 1021.35 1021.37 1021.31 1021.01 1020.77 1020.62 1020.57 1020.33 1020.30 1019.99 1019.94 1019.90 1019.76 1019.82 1019.82 1019.90 1019.74 1019.44 1019.00 1018.56 1018.17 1017.78 1017.02 1016.47 1016.33 1016.32 1016.38 1016.33
1019.79 1020.01 1020.41 1020.57 1020.78 1020.95 1021.08 1021.14 1021.03 1021.10 1021.29 1021.46 1021.61 1021.64 1021.49 1021.56 1021.63 1021.54 1021.24 1020.96 1020.61 1020.38 1020.40 1020.35 1020.16 1020.01 1020.08 1020.20 1020.35 1019.99 1019.67 1020.13 1019.88 1019.36 1018.96 1018.48 1017.93 1017.31 1016.80 1016.74 1016.92 1016.95 1016.87
1019.54 1019.75 1019.94 1020.16 1020.44 1020.59 1020.72 1020.85 1020.91 1021.04 1021.12 1021.26 1021.38 1021.49 1021.40 1021.45 1021.53 1021.48 1021.46 1021.29 1020.74 1020.02 1019.73 1020.08 1019.94 1020.21 1020.18 1020.18 1020.66 1020.09 1020.18 1020.56 1020.10 1019.85 1019.52 1019.04 1018.67 1018.16 1017.81 1017.64 1017.63 1017.57 1017.42
1019.38 1019.49 1019.82 1019.87 1020.07 1020.27 1020.41 1020.67 1020.82 1020.90 1021.09 1021.10 1021.14 1021.30 1021.24 1021.06 1021.22 1021.28 1021.26 1021.21 1020.98 1020.65 1019.92 1020.10 1020.05 1020.26 1020.43 1020.19 1020.52 1020.31 1020.57 1020.69 1020.83 1020.49 1020.09 1019.78 1019.53 1019.16 1018.87 1018.75 1018.52 1018.25 1018.01
1019.22 1019.38 1019.49 1019.74 1019.92 1020.07 1020.10 1020.34 1020.61 1020.67 1020.80 1020.86 1020.96 1021.03 1020.98 1021.08 1020.89 1020.94 1021.05 1020.97 1020.82 1020.70 1020.19 1019.80 1020.31 1020.32 1020.53 1020.69 1020.52 1020.38 1020.21 1020.21 1021.21 1021.16 1020.78 1020.57 1020.31 1020.01 1019.76 1019.56 1019.36 1019.10 1018.76
1018.90 1019.11 1019.36 1019.63 1019.70 1019.74 1019.94 1020.01 1020.23 1020.22 1020.43 1020.51 1020.56 1020.70 1020.66 1020.62 1020.81 1020.86 1020.79 1020.85 1020.71 1020.75 1020.51 1020.15 1020.15 1020.20 1020.54 1020.57 1020.65 1020.57 1020.20 1020.29 1020.79 1021.55 1021.33 1021.28 1021.16 1020.94 1020.76 1020.51 1020.24 1019.95 1019.54
1018.94 1018.99 1019.15 1019.34 1019.48 1019.61 1019.73 1019.85 1019.90 1020.06 1020.03 1020.13 1020.26 1020.35 1020.37 1020.56 1020.58 1020.38 1020.67 1020.63 1020.49 1020.59 1020.54 1020.57 1020.25 1020.57 1020.60 1020.71 1020.74 1020.80 1021.02 1020.89 1020.74 1021.66 1021.83 1022.16 1021.96 1021.72 1021.48 1021.36 1021.35 1021.15 1020.65
1018.71 1018.77 1018.94 1019.11 1019.29 1019.34 1019.44 1019.59 1019.68 1019.81 1019.82 1019.92 1020.05 1020.18 1020.24 1020.21 1020.34 1020.40 1020.51 1020.61 1020.68 1020.69 1020.66 1020.73 1020.52 1020.51 1020.70 1020.99 1020.83 1020.66 1021.10 1021.42 1021.24 1021.04 1021.99 1022.13 1022.08 1022.30 1022.39 1022.27 1022.15 1021.73 1021.31
1018.40 1018.59 1018.76 1018.92 1018.99 1019.08 1019.13 1019.25 1019.31 1019.40 1019.58 1019.72 1019.82 1019.98 1020.14 1020.06 1020.46 1020.51 1020.49 1020.55 1020.73 1020.67 1020.74 1020.44 1020.70 1020.64 1020.78 1020.84 1020.88 1020.88 1020.81 1021.15 1022.07 1021.64 1021.42 1021.26 1021.87 1022.00 1022.62 1022.86 1022.92 1022.82 1022.23
1018.08 1018.28 1018.49 1018.61 1018.72 1018.90 1019.08 1019.27 1019.38 1019.27 1019.28 1019.46 1019.63 1020.10 1020.37 1020.62 1020.53 1020.77 1020.82 1021.04 1021.18 1020.64 1020.70 1020.68 1020.59 1020.65 1020.98 1021.02 1021.04 1021.04 1020.96 1020.82 1021.25 1022.46 1021.86 1021.75 1022.18 1022.60 1023.54 1023.86 1024.35 1023.69 1023.07
1017.79 1018.00 1018.19 1018.41 1018.61 1018.90 1019.29 1019.25 1019.32 1019.36 1019.22 1019.26 1019.64 1020.17 1020.28 1020.52 1020.26 1020.96 1021.18 1021.29 1021.44 1021.36 1021.07 1020.87 1021.07 1021.47 1021.48 1021.54 1021.17 1021.03 1021.20 1021.65 1022.33 1022.88 1022.53 1022.25 1022.15 1022.87 1023.35 1024.26 1024.57 1024.02 1023.76
1017.73 1017.86 1018.16 1018.43 1018.68 1018.99 1019.45 1019.54 1019.42 1019.19 1019.20 1019.33 1019.70 1020.06 1020.40 1020.71 1020.66 1020.80 1020.93 1021.31 1021.64 1021.76 1021.55 1021.28 1021.83 1022.32 1022.35 1022.24 1021.79 1021.55 1021.85 1022.52 1022.87 1023.11 1023.21 1022.26 1022.98 1022.48 1023.13 1023.86 1024.47 1024.38 1024.19
1017.94 1018.21 1018.50 1018.76 1018.84 1019.02 1019.31 1019.56 1019.71 1019.47 1019.49 1019.74 1020.17 1020.31 1020.46 1020.98 1021.12 1021.04 1020.96 1021.42 1022.10 1022.67 1023.32 1023.32 1023.46 1023.57 1023.43 1023.14 1022.69 1021.79 1022.02 1022.01 1022.44 1023.49 1024.16 1023.09 1023.28 1023.19 1023.01 1023.42 1023.56 1024.19 1024.08
1018.51 1018.84 1019.00 1019.49 1019.56 1019.33 1019.42 1019.28 1019.65 1019.56 1019.76 1020.02 1020.80 1021.18 1020.93 1021.12 1021.11 1021.29 1021.50 1021.73 1022.12 1022.54 1022.62 1022.99 1022.86 1023.19 1023.46 1023.66 1023.83 1023.48 1022.91 1022.61 1022.77 1023.40 1024.99 1024.29 1023.54 1023.32 1022.72 1023.21 1023.46 1023.72 1023.51
Wind_Speed
3 3 3 3 2 2 2 2 2 3 3 4 2 3 4 4 4 2 1 3 4 5 6 8 9 10 11 12 13 13 14 14 13 12 11 11 10 10 10 10 10 10 10
1 1 2 2 1 2 2 2 2 3 4 4 5 5 4 4 3 2 1 1 3 7 7 8 10 11 13 14 13 12 13 13 12 12 11 9 9 9 10 10 11 12 12
2 2 1 2 3 3 3 2 1 1 3 4 5 5 4 4 3 2 1 3 2 3 5 7 8 10 13 15 14 13 13 11 11 11 10 10 10 11 10 11 11 12 13
3 1 2 2 2 2 2 2 1 3 3 3 4 3 3 2 1 2 2 1 2 3 3 5 8 10 13 14 14 12 13 10 9 9 9 9 10 11 11 11 11 11 12
3 1 2 2 1 2 2 2 3 2 3 3 3 2 1 1 1 1 1 2 3 4 4 3 9 12 16 15 14 12 11 8 5 8 9 9 9 10 12 12 10 10 10
2 2 2 2 2 2 3 4 4 4 2 2 1 1 0 1 1 1 2 3 3 5 5 6 6 6 10 12 11 11 9 7 7 7 8 9 9 9 10 11 9 9 9
4 3 2 1 1 3 4 3 3 4 3 1 2 2 2 0 1 2 3 2 3 5 6 5 5 5 4 5 5 7 8 10 9 8 9 10 9 9 9 10 9 8 7
2 2 2 2 1 2 3 3 0 3 2 2 1 0 1 3 2 3 2 2 3 3 4 5 7 7 4 3 4 5 8 10 12 12 11 12 10 9 9 10 9 7 7
4 3 2 2 2 1 1 2 1 1 2 2 3 2 2 2 1 1 1 1 2 2 2 4 6 6 6 4 4 5 11 11 12 13 12 9 9 9 10 9 10 8 8
5 4 3 3 2 1 2 1 1 0 2 2 2 3 3 3 2 2 2 3 2 3 4 4 4 5 5 4 5 4 9 10 11 10 9 9 7 6 7 7 7 9 8
5 5 4 4 3 2 2 1 1 1 1 1 2 1 1 2 1 2 2 1 2 1 3 4 3 3 4 5 5 6 12 11 11 11 11 12 12 11 9 6 1 3 7
4 5 4 4 3 3 3 1 2 1 2 3 1 2 2 2 1 2 2 2 3 2 3 2 3 3 4 5 5 5 9 10 9 10 10 12 13 13 12 9 5 4 6
6 6 6 5 4 4 4 3 3 1 1 2 1 2 1 1 1 1 2 1 2 1 1 2 3 4 5 5 7 8 13 11 10 11 14 15 16 15 12 9 7 8 8
6 7 8 7 7 6 5 4 4 4 3 2 2 0 1 0 1 1 2 3 1 1 1 1 1 4 4 6 7 6 8 12 12 13 15 16 17 17 15 14 14 13 12
6 7 7 7 8 7 7 5 5 5 4 4 4 3 3 2 3 2 2 3 4 3 2 4 1 3 3 4 8 6 8 12 15 15 16 19 18 19 20 20 17 15 12
8 8 8 8 8 8 8 7 6 6 5 4 4 4 4 4 4 3 4 4 4 4 5 1 1 2 4 5 6 5 7 16 15 16 19 20 21 22 22 22 21 19 18
6 7 7 8 9 10 9 9 8 7 7 6 6 6 5 4 4 4 4 4 4 4 5 1 2 2 1 5 6 4 6 9 12 17 20 22 22 23 24 24 24 23 22
7 7 6 7 9 10 9 9 9 8 9 8 8 7 8 6 7 6 6 6 5 4 5 5 2 1 1 4 4 5 4 7 10 16 20 21 23 23 23 24 23 23 22
7 8 7 7 7 8 9 9 9 10 10 10 9 8 9 8 8 7 6 5 5 4 4 2 4 1 1 3 3 4 6 5 9 16 20 19 19 21 23 23 22 20 20
8 8 8 8 8 8 9 9 10 10 10 9 9 8 8 8 8 8 7 7 6 5 4 3 3 2 1 2 1 1 5 6 5 7 14 12 13 19 21 19 23 23 22
8 8 8 8 7 8 8 10 10 10 9 9 8 6 5 3 4 5 4 6 6 5 4 3 2 1 0 0 1 1 2 5 7 5 4 5 7 9 12 18 19 24 23
9 8 9 9 8 6 4 3 5 6 7 7 7 6 5 4 4 7 8 10 6 4 5 3 3 2 3 1 1 1 0 2 3 7 2 5 7 8 10 11 19 22 22
8 8 8 8 8 7 6 7 7 6 6 6 6 5 4 3 5 6 9 9 11 10 7 2 3 1 2 1 2 3 3 4 4 5 4 6 2 7 7 10 18 21 22
6 5 5 6 7 6 6 7 7 5 5 5 7 6 4 3 3 5 6 7 9 9 7 6 8 6 5 3 3 3 5 7 5 6 6 1 3 4 4 8 13 18 18
3 3 1 4 5 5 6 8 7 6 6 7 4 4 6 6 3 6 7 10 11 12 14 18 15 13 17 17 12 1 2 4 2 3 8 3 3 2 2 3 6 9 15
3 2 3 2 2 4 3 7 10 6 8 6 5 4 8 5 6 7 7 9 10 10 9 8 8 11 12 13 17 10 5 3 2 3 8 3 4 3 4 2 4 7 6
Wind_Direction
80 78 83 72 55 46 51 41 33 11 44 76 120 164 132 134 117 130 120 207 266 284 308 322 324 322 323 318 314 310 302 303 309 308 309 313 325 326 325 323 321 318 313
82 70 77 70 53 14 357 350 359 18 54 85 94 114 124 118 109 92 87 147 281 306 314 315 320 326 317 307 301 300 300 305 314 325 328 336 344 338 331 326 326 328 327
147 122 77 49 47 29 360 22 26 79 93 94 90 94 109 93 83 72 22 6 18 228 301 303 323 314 301 294 293 296 308 317 322 327 336 345 349 340 335 326 324 328 327
172 132 110 75 32 44 48 41 79 121 101 86 93 92 103 103 76 60 45 324 306 318 243 243 270 271 277 284 293 302 314 316 316 321 332 341 344 336 332 321 314 321 328
143 166 136 82 357 36 64 44 90 101 122 113 109 121 121 78 75 65 333 286 274 270 297 269 266 278 281 288 299 314 324 333 325 324 326 331 337 332 326 316 312 316 327
139 175 140 114 5 34 56 65 84 79 85 127 123 118 235 33 10 356 322 329 322 299 318 319 304 287 277 293 318 324 337 350 349 330 314 310 319 321 316 313 316 320 333
135 149 156 148 31 39 34 61 110 84 88 42 208 155 120 191 231 5 306 296 317 332 339 338 315 318 299 305 326 355 357 360 347 325 308 299 303 311 309 304 315 333 338
217 206 215 166 107 63 55 40 279 115 70 29 333 162 190 169 172 29 11 318 337 344 354 345 348 352 339 343 14 352 357 354 345 335 314 304 305 306 301 299 312 343 349
203 246 235 215 184 146 99 51 46 126 130 75 22 316 197 231 280 151 84 66 338 324 324 335 8 16 33 39 326 357 360 334 341 343 336 336 343 326 312 303 306 336 9
183 203 202 190 229 176 182 94 30 43 212 179 151 66 23 349 284 229 187 220 275 336 342 340 355 6 358 348 349 329 339 335 344 350 349 2 349 337 322 301 302 331 6
194 190 182 196 206 246 229 197 204 150 162 228 243 170 75 46 38 314 310 1 226 314 333 9 15 15 352 347 343 354 351 356 1 0 342 358 349 347 350 347 6 332 360
183 200 205 193 204 228 234 236 36 51 97 109 136 221 214 252 214 247 275 317 326 332 354 29 42 18 14 9 24 13 21 27 13 350 351 359 352 354 355 2 52 63 48
196 191 199 206 203 212 224 218 196 222 253 331 27 19 55 7 324 344 301 10 331 42 355 55 18 21 30 20 47 5 39 17 7 7 10 11 8 9 5 9 58 51 48
209 191 195 204 210 206 206 213 222 230 200 242 227 319 283 13 336 300 321 316 217 280 201 348 23 31 37 28 27 327 57 15 20 24 22 24 24 27 41 51 50 38 32
208 212 213 204 207 208 208 211 227 230 225 211 208 198 234 209 231 229 250 280 317 301 293 160 258 58 13 20 23 21 60 40 42 44 41 40 37 39 42 44 39 36 29
201 198 214 215 210 207 204 212 224 222 230 229 236 214 220 214 219 230 236 250 263 288 290 25 152 12 17 354 42 41 92 76 47 50 50 47 44 44 45 43 41 38 33
221 226 217 212 220 218 210 208 220 231 231 232 235 231 239 223 237 222 218 228 240 240 271 259 268 84 336 13 29 57 83 84 69 52 56 55 57 55 54 51 46 44 42
238 236 234 230 229 230 217 220 222 219 220 229 235 235 244 238 233 235 235 236 247 234 273 278 343 218 298 36 71 89 75 85 97 73 67 65 60 56 51 47 44 42 40
226 237 235 227 219 215 221 229 227 232 232 230 234 231 234 226 232 243 232 239 236 234 229 274 284 276 309 20 116 90 73 85 104 119 93 70 62 59 53 48 43 41 40
226 222 221 229 230 226 222 232 234 236 228 232 232 233 235 234 236 235 232 229 229 225 234 242 269 257 264 86 330 150 115 63 57 88 87 92 85 75 52 50 42 43 43
222 235 229 230 229 227 226 225 230 228 234 234 224 230 238 288 358 308 268 225 220 218 232 249 247 230 11 357 13 9 142 138 80 21 66 82 54 56 49 47 41 39 38
217 218 229 232 233 230 150 174 243 249 254 233 205 201 173 173 82 62 77 61 24 246 207 200 214 211 179 187 113 10 307 209 152 54 3 63 74 72 58 54 41 42 40
217 222 233 241 241 234 197 187 194 231 234 239 208 176 168 144 143 115 98 93 65 44 26 88 145 48 128 87 154 168 99 90 64 18 276 80 29 92 69 70 46 45 39
210 215 228 229 226 220 227 255 235 205 194 181 172 167 178 166 137 155 133 93 71 54 45 81 90 85 51 8 33 67 103 116 137 65 347 108 7 130 119 101 65 52 42
166 177 230 244 236 218 211 252 229 182 145 131 121 150 158 153 165 173 137 123 105 94 77 79 84 81 62 43 22 223 143 234 149 58 21 330 35 284 179 77 70 88 58
115 134 114 59 343 268 337 222 221 178 145 109 107 93 56 110 133 165 142 142 133 137 127 109 84 68 56 58 40 36 13 30 96 146 41 312 350 345 205 116 52 26 19